Tracking 28790 objects as of 19-Apr-2024
HD Live streaming from Space Station
objects crossing your sky now

STARLINK-1532

Track STARLINK-1532 now!
10-day predictions
STARLINK-1532 is classified as:


NORAD ID: 46068
Int'l Code: 2020-055AT
Perigee: 366.3 km
Apogee: 367.0 km
Inclination: 53.1 °
Period: 91.7 minutes
Semi major axis: 6737 km
RCS: Unknown
Launch date: August 7, 2020
Source: United States (US)
Launch site: AIR FORCE EASTERN TEST RANGE (AFETR)
Your satellite tracking list
Your tracking list is empty




NASA's NSSDC Master Catalog

Two Line Element Set (TLE):
1 46068U 20055AT  24109.83939146 -.00050078  00000-0 -40985-3 0  9996
2 46068  53.0525 301.3184 0000539  24.8227 335.2816 15.69774486204964
Source of the keplerian elements: AFSPC